SCP
0 0 0 0 0 0 0 0 0 0 0 0 0 0 0 0 0 0 0 0 0 0 0 0 0 0 0 0 0 0 0 0 0 0 0 0 0 0 0 0 -0 -0 0 0 0 0 0 -0 0 0 0 0 0 0
0 0 0 0 0 0 0 0 0 0 0 0 0 0 0 0 0 0 0 0 0 0 0 0 0 -0 -0 -0 0 0 0 0 0 0 0 0 0 0 0 0 -0 -0 -0 -0 0 0 0 -0 0 0 0 0 0 0
0 0 0 0 0 0 0 0 0 0 0 0 0 0 0 0 0 0 0 0 0 0 0 0 0 0 0 0 0 0 0 0 0 0 0 0 0 0 -0 0 -0 -0 -0 -0 -0 -0 0 -0 -0 -0 0 0 0 0
0 0 0 0 0 0 0 0 0 0 0 0 0 0 0 0 0 0 0 0 0 0 0 0 0 0 -0 0 0 0 0 0 0 0 0 0 0 0 0 0 -0 -0 -0 -0 -0 -0 -0 -0 0 -0 0 0 0 0
0 0 0 0 0 0 0 0 -0 0 0 0 0 0 0 0 0 0 0 0 0 0 0 0 0 0 0 -0 -0 0 0 0 0 0 0 0 0 0 0 0 -0 -0 -0 -0 -0 0 0 0 -0 -0 -0 0 0 0
0 0 0 0 0 0 -0 -0 -0 0 0 0 0 0 0 0 0 0 0 0 0 0 0 0 0 0 0 0 -0 0 0 0 0 0 0 0 0 0 0 -0 0 -0 0 0 -0 -0 -0 -0 0 -0 -0 0 0 0
0 0 -0 0 0 -0 -0 -0 0 -0 0 0 0 0 0 0 0 0 0 0 0 0 0 0 0 0 0 0 0 0 0 0 0 0 0 0 0 0 0 -0 0 -0 -0 0 -0 0 -0 -0 -0 0 -0 0 0 0
0 0 0 0 -0 -0 -0 -0 -0 0 0 0 0 0 0 0 0 0 0 -0 0 0 0 0 0 -0 0 0 0 0 0 0 0 0 0 0 0 0 0 0 0 0 0 -0 -0 -0 -0 0 -0 -0 -0 -0 0 0
0 0 0 0 0 0 0 0 0 0 0 0 0 0 0 0 0 0 0 0 0 0 0 0 0 0 0 0 0 0 0 0 0 0 0 0 0 0 0 0 0 0 -0 -0 -0 -0 -0 -0 -0 0 0 0 -0 0
0 0 0 0 0 0 0 0 0 0 0 0 0 0 0 0 0 0 0 0 0 0 0 0 0 0 0 0 0 0 0 0 0 0 0 0 0 0 0 0 0 0 0 0 -0 -0 -0 0 0 0 0 0 0 -0
0 0 0 0 0 0 0 0 0 0 0 0 0 0 0 0 0 0 0 0 0 0 0 0 0 0 0 0 0 0 0 0 0 0 0 0 0 0 0 0 0 0 0 0 0 -0 -0 -0 0 0 0 0 0 0
0 0 0 0 0 0 0 0 0 0 0 0 0 0 0 0 0 0 0 0 0 0 0 0 0 0 0 0 0 0 0 0 -0 -0 0 0 0 0 0 0 0 0 0 -0 -0 -0 -0 -0 0 0 0 0 0 0
0 0 0 0 0 0 0 0 0 0 0 0 0 0 0 0 0 0 0 0 0 0 0 0 0 0 0 0 0 0 0 0 0 0 0 0 0 0 0 0 0 0 0 0 0 -0 0 -0 -0 0 0 0 0 0
0 0 0 0 0 0 0 0 0 0 0 0 0 0 0 0 0 0 0 0 0 -0 0 0 0 0 0 0 0 0 0 0 0 0 0 0 0 0 -0 0 0 0 0 0 -0 0 -0 0 -0 0 0 0 0 0
0 0 0 0 0 0 0 0 0 0 0 0 0 0 0 0 0 0 0 0 0 -0 0 0 0 0 0 0 0 0 0 0 0 0 0 0 0 0 -0 0 0 0 0 0 -0 -0 -0 -0 -0 0 0 0 0 0
0 0 0 0 0 0 0 0 0 0 0 0 0 0 0 0 0 0 0 0 0 0 0 0 0 0 0 0 0 0 0 0 0 0 0 0 0 0 0 0 0 0 0 0 0 -0 -0 -0 -0 -0 0 0 0 0
0 0 0 0 0 0 0 0 0 0 0 0 0 0 0 0 0 0 0 0 0 0 0 0 0 0 0 0 0 0 0 0 0 0 0 0 0 0 0 0 0 0 0 0 0 0 -0 -0 -0 -0 0 0 0 0
0 0 0 0 0 0 0 0 0 0 0 0 0 0 0 0 0 0 0 0 0 0 0 0 0 0 0 0 0 0 0 0 0 0 0 0 0 0 0 -0 0 -0 -0 0 0 0 0 0 -0 -0 0 -0 0 0
0 0 0 0 0 0 0 0 0 0 0 0 0 0 0 0 0 0 0 0 0 0 0 0 0 0 0 0 0 0 0 0 0 0 0 0 0 0 0 -0 0 0 0 0 0 0 0 0 -0 -0 0 0 -0 0
0 0 0 0 0 0 0 0 0 0 0 0 0 0 0 0 0 0 0 0 0 0 0 0 0 0 0 0 0 0 0 0 0 0 0 0 0 0 0 0 0 0 0 0 0 0 0 0 0 -0 -0 0 0 0
0 0 0 0 0 0 0 0 0 0 0 0 0 0 0 0 0 0 0 -0 -0 -0 0 0 0 0 0 0 0 0 0 0 0 0 0 0 0 0 0 0 0 -0 0 0 0 0 -0 0 -0 -0 -0 -0 -0 -0
0 0 0 0 0 0 0 0 0 0 0 0 0 0 0 0 0 0 0 0 0 0 0 0 0 0 0 0 0 0 0 0 0 0 0 0 0 0 -0 0 0 0 0 0 0 0 0 -0 0 0 0 0 0 0
0 0 0 0 0 0 0 0 0 0 0 0 0 0 0 0 0 0 0 0 0 0 0 0 0 0 0 0 0 0 0 0 0 0 0 0 0 0 0 0 0 0 0 0 0 0 0 -0 -0 0 0 0 0 0
0 0 0 0 0 0 0 0 0 0 0 0 0 0 0 0 0 0 0 0 0 0 0 0 0 0 0 0 0 0 0 0 0 0 0 0 0 0 0 0 0 0 0 0 0 0 0 -0 -0 -0 -0 0 0 0
0 0 0 0 0 0 0 0 0 0 0 0 0 0 0 -0 0 0 0 0 0 0 0 0 0 0 0 0 0 0 0 0 0 0 0 0 0 0 0 0 0 0 -0 -0 0 0 0 0 0 0 0 -0 -0 0
0 0 0 0 0 0 0 0 0 0 0 0 0 0 0 -0 -0 0 0 0 0 0 0 0 0 0 0 0 0 0 0 0 0 0 0 0 0 0 0 0 0 0 0 0 0 0 0 0 0 0 0 0 0 0
0 0 0 0 0 0 0 0 0 -0 -0 -0 0 0 0 0 0 0 -0 0 0 0 0 0 0 0 0 0 0 0 0 0 0 0 0 0 0 0 0 0 0 0 0 0 0 0 0 0 0 0 0 0 0 0
0 0 0 0 0 0 0 0 0 0 0 0 0 0 0 0 0 0 -0 -0 0 0 0 0 0 0 0 0 0 0 0 0 0 0 0 0 0 0 0 0 0 0 0 0 0 0 0 0 0 0 0 0 0 0
0 0 0 0 0 0 0 -0 0 0 0 0 0 0 0 0 0 0 -0 -0 -0 -0 0 0 0 0 0 0 0 0 0 0 0 0 0 0 0 0 0 0 0 0 0 0 0 0 0 0 0 0 0 0 0 0
0 0 0 0 0 0 0 -0 0 0 0 -0 -0 0 0 0 0 0 0 0 -0 -0 0 0 0 0 0 0 0 0 0 0 0 0 0 0 0 0 0 0 0 0 0 0 0 0 0 0 0 0 0 0 0 0
0 0 0 0 0 0 0 -0 -0 0 0 0 0 0 0 0 0 0 0 0 -0 -0 0 0 0 -0 -0 -0 0 0 0 0 0 0 0 0 0 0 0 0 0 0 0 0 0 0 0 0 0 0 0 0 0 0
0 0 0 0 0 0 0 0 0 0 0 0 0 0 0 0 0 0 0 0 0 0 0 0 0 0 0 0 0 0 0 0 0 0 0 0 0 0 0 0 0 0 0 0 0 0 0 0 0 0 0 0 0 0
0 0 0 0 0 0 0 0 0 0 -0 0 -0 0 0 0 0 0 0 0 0 0 0 0 0 0 0 0 0 0 0 0 0 0 0 0 0 0 0 0 0 0 0 0 0 0 0 0 0 0 0 0 0 0
Wind_Speed_500mb
50 52 53 57 60 61 56 59 68 64 50 43 42 41 41 39 37 36 43 14 21 24 65 66 49 26 23 19 3 18 17 10 8 11 6 5 5 5 7 4 11 4 7 4 5 4 2 47 43 17 13 28 52 55
51 54 56 57 59 59 58 64 67 59 45 45 47 47 46 40 37 30 43 36 30 35 43 61 72 73 75 47 35 7 7 5 6 5 4 6 5 5 7 7 10 3 5 6 6 6 2 5 16 24 27 30 32 42
58 62 61 56 57 62 63 62 61 55 49 47 45 41 38 36 33 30 43 44 34 29 54 28 9 18 16 15 18 13 6 5 1 9 6 5 7 2 5 3 6 8 12 2 6 12 12 12 27 32 38 43 51 46
60 59 58 59 62 65 62 57 56 55 50 46 41 31 33 33 36 40 47 47 29 17 10 16 5 36 45 26 21 19 24 15 19 17 9 5 6 8 3 7 3 5 16 15 9 11 27 26 47 45 44 46 49 62
54 57 58 60 58 56 55 54 53 52 51 46 38 34 35 36 41 44 44 26 26 25 10 28 60 12 25 41 28 23 15 8 2 4 6 6 7 4 2 5 5 2 4 7 6 25 13 33 50 46 45 43 52 62
58 57 56 56 55 57 56 55 52 50 48 44 39 38 37 36 36 32 9 6 2 44 12 8 21 22 16 30 33 22 15 12 7 9 10 11 13 7 2 3 11 21 12 13 11 29 32 41 35 39 39 41 49 54
52 52 52 52 52 53 55 55 51 49 49 42 38 33 35 29 30 16 7 6 13 22 10 12 13 11 20 29 24 27 26 19 15 8 10 10 9 13 4 3 14 23 30 21 27 34 26 33 42 37 39 38 41 43
47 48 48 48 49 50 51 53 53 52 46 38 28 32 32 28 22 12 16 15 22 22 10 5 9 13 20 16 11 14 13 17 14 10 8 8 5 4 2 15 14 15 12 11 18 28 26 32 35 36 29 32 38 33
45 43 44 46 49 50 49 49 50 50 41 30 26 25 10 4 4 7 10 20 34 21 7 8 3 7 6 8 9 10 14 5 10 7 7 8 2 5 12 14 5 4 12 15 17 31 38 38 30 28 33 26 32 34
42 42 42 42 44 46 45 46 46 47 36 25 9 5 3 3 5 8 5 7 9 9 11 8 11 7 5 10 4 5 9 6 3 9 5 2 6 9 7 6 15 7 11 17 19 35 40 37 36 36 40 29 27 26
40 41 42 42 41 42 43 37 43 50 36 19 14 7 9 6 9 6 8 9 11 7 14 15 32 10 13 7 7 4 3 4 3 7 4 2 6 5 14 21 13 10 10 16 14 27 30 34 34 42 39 30 26 25
37 38 38 38 38 36 33 30 37 47 41 34 26 29 16 4 8 5 6 7 11 8 15 12 22 32 9 5 4 3 2 4 8 9 3 3 5 4 5 11 10 11 20 27 29 34 26 37 35 35 26 28 30 25
33 34 34 34 31 25 24 32 42 47 36 8 3 7 6 5 4 9 8 7 7 5 12 14 8 21 11 9 5 3 2 8 7 6 5 6 5 12 8 10 18 16 16 13 18 23 29 40 33 30 31 34 36 36
30 31 31 23 20 28 36 41 44 35 13 5 7 8 9 8 10 10 8 5 10 19 45 32 12 9 8 5 6 5 7 4 4 4 8 6 22 33 20 5 11 13 17 14 20 19 31 38 37 30 34 37 40 41
29 28 24 16 31 43 51 48 35 24 8 8 9 9 13 28 25 26 34 33 40 22 37 7 4 14 4 6 6 3 3 5 9 9 6 16 27 28 16 11 9 5 9 11 17 17 28 35 40 36 34 34 37 33
35 28 16 25 43 51 43 43 26 4 9 10 16 10 22 15 16 18 26 36 47 39 18 9 1 7 8 8 7 10 10 9 8 7 9 15 23 24 20 22 13 6 5 9 15 21 24 33 34 39 27 33 35 32
35 13 29 36 43 47 38 29 8 12 12 12 18 30 48 44 40 47 47 46 56 37 7 6 7 12 4 5 7 10 9 7 14 17 12 15 24 22 22 18 11 17 9 15 17 16 14 25 31 39 40 33 35 39
36 36 35 32 34 44 25 7 9 12 16 27 15 37 40 47 48 48 53 51 46 27 8 10 8 6 7 9 6 8 22 20 17 12 12 19 22 24 25 22 18 16 19 16 6 13 9 17 33 34 37 32 38 46
38 39 33 19 20 29 12 8 14 12 24 30 39 54 51 51 53 51 58 55 54 51 21 8 7 7 8 10 9 10 18 14 19 29 16 17 24 28 26 22 18 18 14 14 19 17 13 15 25 32 32 37 43 41
38 36 30 12 14 9 10 14 14 16 12 16 31 45 48 43 50 52 54 53 32 25 8 9 11 25 27 27 22 35 32 18 18 26 26 20 24 30 20 24 24 28 32 30 26 23 18 17 17 24 29 30 35 39
40 5 21 28 30 22 14 13 14 22 25 18 27 33 27 28 43 50 42 37 30 9 5 22 41 48 42 44 46 41 26 24 29 35 37 38 40 38 29 24 18 43 37 27 31 31 22 19 17 16 22 26 26 30
44 35 35 16 12 12 18 24 19 15 23 32 45 32 17 10 22 16 29 24 10 32 40 41 47 50 53 50 49 46 40 26 34 30 29 36 38 40 38 36 33 36 45 37 34 36 31 23 20 16 15 19 18 21
18 15 12 15 15 12 16 22 14 11 7 9 22 13 10 17 21 32 8 25 42 47 54 51 51 53 59 55 52 47 39 33 25 37 37 46 41 36 35 34 43 50 45 38 35 38 32 30 30 22 14 10 11 11
22 11 9 10 18 10 11 10 14 11 14 15 10 16 20 21 42 22 12 12 29 51 47 47 38 30 20 28 36 32 29 29 30 36 46 49 47 36 38 36 55 51 43 45 40 42 33 34 30 20 14 7 1 4
9 11 7 11 12 11 8 8 8 5 12 12 10 7 6 12 5 6 5 19 30 44 56 53 52 43 27 20 12 11 21 39 37 52 56 51 44 35 44 59 53 47 45 47 46 45 39 32 23 16 15 14 10 14
8 12 15 11 9 7 6 12 9 11 20 10 8 15 10 5 4 9 7 34 40 51 62 50 48 50 39 13 6 7 7 11 32 52 60 55 48 57 66 67 61 53 41 39 46 43 36 28 23 16 17 15 12 15
9 12 19 25 31 30 11 32 41 12 14 10 7 6 6 7 5 1 8 39 45 67 61 48 30 45 23 4 6 6 10 13 18 37 42 51 52 55 61 63 57 52 49 42 41 43 39 34 26 17 16 16 16 12
17 12 14 30 29 36 15 10 7 5 8 5 14 9 4 3 4 14 18 31 37 59 71 49 33 37 32 27 17 12 12 11 10 18 38 43 44 42 44 56 56 53 54 53 51 41 33 27 25 18 12 12 14 8
14 19 23 24 24 16 16 12 14 18 35 24 1 5 5 7 29 25 28 30 24 29 36 41 40 37 38 43 39 34 22 16 22 29 27 24 35 45 53 69 67 61 56 51 44 40 37 31 27 20 14 9 8 5
22 27 13 10 7 8 14 21 25 30 35 37 21 25 12 13 45 38 31 31 34 35 29 35 38 40 43 45 41 37 28 20 8 8 19 27 37 23 44 67 74 64 54 48 47 46 40 34 33 31 24 16 11 6
21 13 12 14 12 29 48 46 39 33 30 28 27 35 8 18 18 50 52 40 34 33 32 34 34 38 42 41 39 34 38 30 22 7 7 23 21 34 52 57 54 54 48 43 44 47 45 40 35 32 28 23 15 8
20 15 8 5 10 26 24 15 16 13 13 12 21 26 23 13 22 39 60 49 37 35 33 31 33 35 29 26 26 25 24 25 37 21 18 26 30 40 33 43 48 48 44 44 45 43 39 37 38 34 28 20 13 7
35 30 13 6 7 8 6 6 3 5 22 15 25 28 29 14 10 36 46 38 31 30 27 25 35 43 35 33 31 30 28 23 21 30 30 34 46 49 51 52 50 48 44 43 42 36 35 35 31 24 18 14 8 3
Wind_Direction_500mb
317 318 319 319 318 320 321 320 320 323 317 316 314 313 316 319 321 314 317 333 255 261 278 279 273 256 262 268 248 310 337 6 308 24 347 322 293 325 316 307 324 307 297 298 294 266 331 357 358 54 345 334 331 322
315 315 316 317 319 316 318 319 320 323 315 310 310 309 308 309 312 306 299 315 282 271 261 279 288 282 273 268 263 236 261 251 299 346 352 302 291 300 309 344 313 305 350 323 352 331 113 68 19 12 351 322 313 318
313 312 312 314 316 314 317 321 322 321 319 313 314 315 315 310 309 298 292 302 302 276 294 280 291 344 303 274 243 202 222 254 266 352 282 274 287 245 332 285 279 324 352 53 231 172 297 36 22 359 333 323 332 319
313 315 316 315 312 312 313 322 322 321 317 316 318 319 315 310 306 302 295 297 267 264 277 286 223 282 288 271 240 235 241 254 292 276 253 265 269 239 265 288 258 330 318 307 248 6 353 351 345 337 339 340 318 334
311 312 312 313 315 316 316 320 321 321 319 316 314 313 311 307 307 308 303 297 243 212 293 294 305 259 320 238 227 229 220 166 173 256 238 237 247 274 324 278 296 12 322 328 320 330 319 296 327 348 344 338 320 342
310 310 313 314 314 316 318 319 324 320 317 315 311 310 308 311 311 327 331 353 257 204 292 304 307 295 281 219 220 232 240 230 216 207 234 260 246 213 190 274 273 262 258 257 268 312 309 309 320 341 335 336 324 330
311 315 316 316 316 317 320 324 327 322 320 317 307 301 303 304 301 272 226 158 162 204 270 296 288 315 253 209 225 240 241 234 224 242 227 235 263 188 125 212 271 299 300 322 311 297 315 330 326 338 333 331 317 323
317 317 317 317 318 319 323 326 329 326 325 319 308 299 297 290 283 303 206 221 196 197 243 263 274 311 206 192 228 224 211 216 226 237 247 212 280 134 229 243 280 329 355 351 1 11 353 345 349 352 332 338 321 331
319 318 320 322 322 323 327 328 328 326 329 317 310 307 313 153 229 294 241 238 205 197 239 228 212 265 184 203 268 221 221 227 228 219 239 153 196 204 219 227 286 342 5 2 357 3 8 8 353 345 342 321 325 332
319 319 322 323 325 327 328 329 334 337 339 329 331 330 204 143 299 317 236 216 224 230 249 244 213 268 277 197 319 282 213 232 249 239 238 163 238 221 9 167 162 80 35 354 352 3 351 349 351 346 337 321 313 322
321 320 321 322 327 327 327 335 340 349 355 4 344 291 275 314 293 237 219 178 201 231 225 240 218 220 230 172 208 228 232 289 327 287 165 282 312 246 102 135 57 66 45 13 359 15 2 356 356 0 355 6 359 336
321 322 323 323 326 325 334 341 339 342 337 316 295 295 303 264 234 250 219 214 200 232 208 199 212 201 229 170 90 334 171 6 256 330 69 237 263 212 74 54 141 67 61 39 17 357 6 4 359 3 9 22 27 23
321 320 321 321 322 328 331 332 335 336 332 350 287 255 221 242 241 220 222 221 221 247 212 208 168 161 156 174 127 102 88 239 326 30 239 234 224 138 264 110 130 96 54 50 31 30 22 12 10 16 30 45 41 49
322 317 320 321 325 326 320 325 327 333 338 298 248 258 206 214 234 207 217 230 223 239 270 260 153 148 140 118 141 156 233 65 334 267 242 228 202 188 208 153 145 79 56 63 44 31 28 31 29 37 45 51 49 58
319 313 307 292 308 310 321 324 327 310 275 256 251 240 225 230 254 269 271 274 296 314 299 230 223 142 150 160 176 164 230 253 205 231 235 209 194 186 220 219 163 63 71 57 45 52 45 47 45 47 51 53 47 54
320 319 286 281 306 309 318 310 316 272 252 239 238 269 276 287 277 303 311 314 323 321 318 340 4 164 184 165 151 201 143 229 249 215 214 159 154 165 186 195 195 196 107 100 52 52 51 49 53 47 59 61 53 41
318 320 299 310 314 318 321 297 233 221 241 234 240 249 263 275 275 282 290 296 301 309 174 143 234 233 150 155 185 167 202 220 216 225 206 210 202 246 243 200 198 208 167 117 66 54 60 53 49 52 61 65 62 62
305 315 324 328 323 326 328 224 245 245 247 247 254 263 270 276 278 283 290 297 292 284 256 186 204 280 210 179 243 232 209 230 231 217 235 215 229 188 188 194 192 169 161 163 341 107 83 57 47 57 58 68 72 72
306 312 321 325 340 326 298 254 225 260 246 259 264 271 271 276 283 288 293 297 300 295 251 128 266 203 212 218 215 174 174 179 279 272 231 205 198 204 207 192 198 182 173 157 145 138 122 77 59 50 56 64 72 70
303 308 304 289 323 291 271 266 239 262 260 255 269 278 280 283 291 291 292 298 323 318 245 195 195 219 223 240 228 242 239 235 206 224 189 175 195 196 195 217 201 184 162 146 142 143 135 119 80 50 45 52 60 62
309 17 314 283 278 253 255 269 253 260 281 285 279 324 298 299 303 297 297 301 302 237 270 289 269 268 277 260 247 258 242 228 220 228 217 204 201 204 215 196 154 170 169 171 160 154 148 138 106 74 50 51 50 55
299 309 306 303 241 238 245 237 242 273 307 287 293 286 259 268 293 295 321 283 244 274 283 283 282 283 282 267 260 267 259 245 245 228 228 225 204 203 213 202 186 195 178 169 170 167 157 152 139 113 68 60 55 54
309 297 261 231 237 237 257 243 241 235 240 266 330 345 321 310 294 306 297 304 297 309 314 318 302 288 274 270 263 261 238 227 217 212 216 202 198 195 193 188 178 171 166 170 171 163 155 158 151 129 107 77 51 53
303 260 246 243 217 253 255 243 228 243 278 294 294 285 281 275 279 281 264 315 350 351 359 3 4 344 284 242 219 215 222 226 214 204 206 193 197 204 222 199 185 180 176 168 169 164 155 150 152 157 170 176 127 108
272 245 220 262 260 240 247 232 219 248 319 316 268 242 311 324 279 242 269 7 340 358 353 358 3 18 355 321 237 292 254 243 224 202 185 177 163 142 178 176 173 166 159 157 156 159 162 166 174 181 181 181 168 147
239 229 198 223 240 242 334 334 31 343 320 300 297 295 289 280 302 25 21 4 2 355 357 354 338 340 344 344 13 207 208 211 218 196 182 186 186 179 174 170 167 167 165 161 165 170 171 174 170 165 161 167 168 152
238 262 231 234 260 277 287 291 300 299 295 289 273 285 15 2 334 35 345 7 2 3 8 3 339 315 317 40 117 190 188 172 207 205 197 187 181 181 192 179 175 169 170 175 179 182 181 182 179 167 153 149 157 162
247 272 260 269 260 267 274 280 289 260 247 246 353 343 295 262 342 4 24 356 8 12 3 12 32 31 68 91 69 122 117 112 134 168 183 179 183 203 209 190 190 175 175 171 172 180 188 195 197 191 187 172 160 152
248 252 291 274 273 254 250 237 229 228 253 275 356 287 287 22 10 0 359 3 1 18 8 23 32 33 40 52 62 61 69 93 138 155 164 175 183 204 202 185 187 189 181 177 180 187 193 200 203 209 207 184 152 134
262 263 250 257 246 234 232 220 250 272 278 286 276 272 287 80 39 31 23 12 15 22 23 34 37 33 32 39 38 38 40 40 46 224 215 206 204 194 184 186 179 180 181 180 176 175 182 188 191 191 190 180 172 170
268 252 239 239 254 260 271 281 277 275 279 274 267 265 196 152 46 26 22 21 19 20 19 28 28 24 26 32 37 46 43 33 23 24 147 179 163 173 180 174 187 185 182 182 179 180 181 188 193 188 182 175 175 192
261 248 234 245 278 299 304 279 257 236 263 333 31 44 97 84 32 15 12 12 16 20 25 28 33 34 38 60 64 61 59 60 78 115 163 161 164 177 189 190 183 172 166 163 163 170 176 180 184 189 186 181 189 203
286 301 301 267 278 284 260 198 261 75 60 57 32 43 64 73 67 11 18 28 25 29 37 56 65 60 56 58 60 59 58 60 60 72 92 118 130 134 140 142 147 151 151 145 148 154 163 171 178 181 184 189 182 148
Wind_Speed_850mb
50 52 53 57 60 61 56 59 68 64 50 43 42 41 41 39 37 36 43 14 21 24 65 66 49 26 23 19 3 18 17 10 8 11 6 5 5 5 7 4 11 4 7 4 5 4 2 47 43 17 13 28 52 55
51 54 56 57 59 59 58 64 67 59 45 45 47 47 46 40 37 30 43 36 30 35 43 61 72 73 75 47 35 7 7 5 6 5 4 6 5 5 7 7 10 3 5 6 6 6 2 5 16 24 27 30 32 42
58 62 61 56 57 62 63 62 61 55 49 47 45 41 38 36 33 30 43 44 34 29 54 28 9 18 16 15 18 13 6 5 1 9 6 5 7 2 5 3 6 8 12 2 6 12 12 12 27 32 38 43 51 46
60 59 58 59 62 65 62 57 56 55 50 46 41 31 33 33 36 40 47 47 29 17 10 16 5 36 45 26 21 19 24 15 19 17 9 5 6 8 3 7 3 5 16 15 9 11 27 26 47 45 44 46 49 62
54 57 58 60 58 56 55 54 53 52 51 46 38 34 35 36 41 44 44 26 26 25 10 28 60 12 25 41 28 23 15 8 2 4 6 6 7 4 2 5 5 2 4 7 6 25 13 33 50 46 45 43 52 62
58 57 56 56 55 57 56 55 52 50 48 44 39 38 37 36 36 32 9 6 2 44 12 8 21 22 16 30 33 22 15 12 7 9 10 11 13 7 2 3 11 21 12 13 11 29 32 41 35 39 39 41 49 54
52 52 52 52 52 53 55 55 51 49 49 42 38 33 35 29 30 16 7 6 13 22 10 12 13 11 20 29 24 27 26 19 15 8 10 10 9 13 4 3 14 23 30 21 27 34 26 33 42 37 39 38 41 43
47 48 48 48 49 50 51 53 53 52 46 38 28 32 32 28 22 12 16 15 22 22 10 5 9 13 20 16 11 14 13 17 14 10 8 8 5 4 2 15 14 15 12 11 18 28 26 32 35 36 29 32 38 33
45 43 44 46 49 50 49 49 50 50 41 30 26 25 10 4 4 7 10 20 34 21 7 8 3 7 6 8 9 10 14 5 10 7 7 8 2 5 12 14 5 4 12 15 17 31 38 38 30 28 33 26 32 34
42 42 42 42 44 46 45 46 46 47 36 25 9 5 3 3 5 8 5 7 9 9 11 8 11 7 5 10 4 5 9 6 3 9 5 2 6 9 7 6 15 7 11 17 19 35 40 37 36 36 40 29 27 26
40 41 42 42 41 42 43 37 43 50 36 19 14 7 9 6 9 6 8 9 11 7 14 15 32 10 13 7 7 4 3 4 3 7 4 2 6 5 14 21 13 10 10 16 14 27 30 34 34 42 39 30 26 25
37 38 38 38 38 36 33 30 37 47 41 34 26 29 16 4 8 5 6 7 11 8 15 12 22 32 9 5 4 3 2 4 8 9 3 3 5 4 5 11 10 11 20 27 29 34 26 37 35 35 26 28 30 25
33 34 34 34 31 25 24 32 42 47 36 8 3 7 6 5 4 9 8 7 7 5 12 14 8 21 11 9 5 3 2 8 7 6 5 6 5 12 8 10 18 16 16 13 18 23 29 40 33 30 31 34 36 36
30 31 31 23 20 28 36 41 44 35 13 5 7 8 9 8 10 10 8 5 10 19 45 32 12 9 8 5 6 5 7 4 4 4 8 6 22 33 20 5 11 13 17 14 20 19 31 38 37 30 34 37 40 41
29 28 24 16 31 43 51 48 35 24 8 8 9 9 13 28 25 26 34 33 40 22 37 7 4 14 4 6 6 3 3 5 9 9 6 16 27 28 16 11 9 5 9 11 17 17 28 35 40 36 34 34 37 33
35 28 16 25 43 51 43 43 26 4 9 10 16 10 22 15 16 18 26 36 47 39 18 9 1 7 8 8 7 10 10 9 8 7 9 15 23 24 20 22 13 6 5 9 15 21 24 33 34 39 27 33 35 32
35 13 29 36 43 47 38 29 8 12 12 12 18 30 48 44 40 47 47 46 56 37 7 6 7 12 4 5 7 10 9 7 14 17 12 15 24 22 22 18 11 17 9 15 17 16 14 25 31 39 40 33 35 39
36 36 35 32 34 44 25 7 9 12 16 27 15 37 40 47 48 48 53 51 46 27 8 10 8 6 7 9 6 8 22 20 17 12 12 19 22 24 25 22 18 16 19 16 6 13 9 17 33 34 37 32 38 46
38 39 33 19 20 29 12 8 14 12 24 30 39 54 51 51 53 51 58 55 54 51 21 8 7 7 8 10 9 10 18 14 19 29 16 17 24 28 26 22 18 18 14 14 19 17 13 15 25 32 32 37 43 41
38 36 30 12 14 9 10 14 14 16 12 16 31 45 48 43 50 52 54 53 32 25 8 9 11 25 27 27 22 35 32 18 18 26 26 20 24 30 20 24 24 28 32 30 26 23 18 17 17 24 29 30 35 39
40 5 21 28 30 22 14 13 14 22 25 18 27 33 27 28 43 50 42 37 30 9 5 22 41 48 42 44 46 41 26 24 29 35 37 38 40 38 29 24 18 43 37 27 31 31 22 19 17 16 22 26 26 30
44 35 35 16 12 12 18 24 19 15 23 32 45 32 17 10 22 16 29 24 10 32 40 41 47 50 53 50 49 46 40 26 34 30 29 36 38 40 38 36 33 36 45 37 34 36 31 23 20 16 15 19 18 21
18 15 12 15 15 12 16 22 14 11 7 9 22 13 10 17 21 32 8 25 42 47 54 51 51 53 59 55 52 47 39 33 25 37 37 46 41 36 35 34 43 50 45 38 35 38 32 30 30 22 14 10 11 11
22 11 9 10 18 10 11 10 14 11 14 15 10 16 20 21 42 22 12 12 29 51 47 47 38 30 20 28 36 32 29 29 30 36 46 49 47 36 38 36 55 51 43 45 40 42 33 34 30 20 14 7 1 4
9 11 7 11 12 11 8 8 8 5 12 12 10 7 6 12 5 6 5 19 30 44 56 53 52 43 27 20 12 11 21 39 37 52 56 51 44 35 44 59 53 47 45 47 46 45 39 32 23 16 15 14 10 14
8 12 15 11 9 7 6 12 9 11 20 10 8 15 10 5 4 9 7 34 40 51 62 50 48 50 39 13 6 7 7 11 32 52 60 55 48 57 66 67 61 53 41 39 46 43 36 28 23 16 17 15 12 15
9 12 19 25 31 30 11 32 41 12 14 10 7 6 6 7 5 1 8 39 45 67 61 48 30 45 23 4 6 6 10 13 18 37 42 51 52 55 61 63 57 52 49 42 41 43 39 34 26 17 16 16 16 12
17 12 14 30 29 36 15 10 7 5 8 5 14 9 4 3 4 14 18 31 37 59 71 49 33 37 32 27 17 12 12 11 10 18 38 43 44 42 44 56 56 53 54 53 51 41 33 27 25 18 12 12 14 8
14 19 23 24 24 16 16 12 14 18 35 24 1 5 5 7 29 25 28 30 24 29 36 41 40 37 38 43 39 34 22 16 22 29 27 24 35 45 53 69 67 61 56 51 44 40 37 31 27 20 14 9 8 5
22 27 13 10 7 8 14 21 25 30 35 37 21 25 12 13 45 38 31 31 34 35 29 35 38 40 43 45 41 37 28 20 8 8 19 27 37 23 44 67 74 64 54 48 47 46 40 34 33 31 24 16 11 6
21 13 12 14 12 29 48 46 39 33 30 28 27 35 8 18 18 50 52 40 34 33 32 34 34 38 42 41 39 34 38 30 22 7 7 23 21 34 52 57 54 54 48 43 44 47 45 40 35 32 28 23 15 8
20 15 8 5 10 26 24 15 16 13 13 12 21 26 23 13 22 39 60 49 37 35 33 31 33 35 29 26 26 25 24 25 37 21 18 26 30 40 33 43 48 48 44 44 45 43 39 37 38 34 28 20 13 7
35 30 13 6 7 8 6 6 3 5 22 15 25 28 29 14 10 36 46 38 31 30 27 25 35 43 35 33 31 30 28 23 21 30 30 34 46 49 51 52 50 48 44 43 42 36 35 35 31 24 18 14 8 3
Wind_Direction_850mb
317 318 319 319 318 320 321 320 320 323 317 316 314 313 316 319 321 314 317 333 255 261 278 279 273 256 262 268 248 310 337 6 308 24 347 322 293 325 316 307 324 307 297 298 294 266 331 357 358 54 345 334 331 322
315 315 316 317 319 316 318 319 320 323 315 310 310 309 308 309 312 306 299 315 282 271 261 279 288 282 273 268 263 236 261 251 299 346 352 302 291 300 309 344 313 305 350 323 352 331 113 68 19 12 351 322 313 318
313 312 312 314 316 314 317 321 322 321 319 313 314 315 315 310 309 298 292 302 302 276 294 280 291 344 303 274 243 202 222 254 266 352 282 274 287 245 332 285 279 324 352 53 231 172 297 36 22 359 333 323 332 319
313 315 316 315 312 312 313 322 322 321 317 316 318 319 315 310 306 302 295 297 267 264 277 286 223 282 288 271 240 235 241 254 292 276 253 265 269 239 265 288 258 330 318 307 248 6 353 351 345 337 339 340 318 334
311 312 312 313 315 316 316 320 321 321 319 316 314 313 311 307 307 308 303 297 243 212 293 294 305 259 320 238 227 229 220 166 173 256 238 237 247 274 324 278 296 12 322 328 320 330 319 296 327 348 344 338 320 342
310 310 313 314 314 316 318 319 324 320 317 315 311 310 308 311 311 327 331 353 257 204 292 304 307 295 281 219 220 232 240 230 216 207 234 260 246 213 190 274 273 262 258 257 268 312 309 309 320 341 335 336 324 330
311 315 316 316 316 317 320 324 327 322 320 317 307 301 303 304 301 272 226 158 162 204 270 296 288 315 253 209 225 240 241 234 224 242 227 235 263 188 125 212 271 299 300 322 311 297 315 330 326 338 333 331 317 323
317 317 317 317 318 319 323 326 329 326 325 319 308 299 297 290 283 303 206 221 196 197 243 263 274 311 206 192 228 224 211 216 226 237 247 212 280 134 229 243 280 329 355 351 1 11 353 345 349 352 332 338 321 331
319 318 320 322 322 323 327 328 328 326 329 317 310 307 313 153 229 294 241 238 205 197 239 228 212 265 184 203 268 221 221 227 228 219 239 153 196 204 219 227 286 342 5 2 357 3 8 8 353 345 342 321 325 332
319 319 322 323 325 327 328 329 334 337 339 329 331 330 204 143 299 317 236 216 224 230 249 244 213 268 277 197 319 282 213 232 249 239 238 163 238 221 9 167 162 80 35 354 352 3 351 349 351 346 337 321 313 322
321 320 321 322 327 327 327 335 340 349 355 4 344 291 275 314 293 237 219 178 201 231 225 240 218 220 230 172 208 228 232 289 327 287 165 282 312 246 102 135 57 66 45 13 359 15 2 356 356 0 355 6 359 336
321 322 323 323 326 325 334 341 339 342 337 316 295 295 303 264 234 250 219 214 200 232 208 199 212 201 229 170 90 334 171 6 256 330 69 237 263 212 74 54 141 67 61 39 17 357 6 4 359 3 9 22 27 23
321 320 321 321 322 328 331 332 335 336 332 350 287 255 221 242 241 220 222 221 221 247 212 208 168 161 156 174 127 102 88 239 326 30 239 234 224 138 264 110 130 96 54 50 31 30 22 12 10 16 30 45 41 49
322 317 320 321 325 326 320 325 327 333 338 298 248 258 206 214 234 207 217 230 223 239 270 260 153 148 140 118 141 156 233 65 334 267 242 228 202 188 208 153 145 79 56 63 44 31 28 31 29 37 45 51 49 58
319 313 307 292 308 310 321 324 327 310 275 256 251 240 225 230 254 269 271 274 296 314 299 230 223 142 150 160 176 164 230 253 205 231 235 209 194 186 220 219 163 63 71 57 45 52 45 47 45 47 51 53 47 54
320 319 286 281 306 309 318 310 316 272 252 239 238 269 276 287 277 303 311 314 323 321 318 340 4 164 184 165 151 201 143 229 249 215 214 159 154 165 186 195 195 196 107 100 52 52 51 49 53 47 59 61 53 41
318 320 299 310 314 318 321 297 233 221 241 234 240 249 263 275 275 282 290 296 301 309 174 143 234 233 150 155 185 167 202 220 216 225 206 210 202 246 243 200 198 208 167 117 66 54 60 53 49 52 61 65 62 62
305 315 324 328 323 326 328 224 245 245 247 247 254 263 270 276 278 283 290 297 292 284 256 186 204 280 210 179 243 232 209 230 231 217 235 215 229 188 188 194 192 169 161 163 341 107 83 57 47 57 58 68 72 72
306 312 321 325 340 326 298 254 225 260 246 259 264 271 271 276 283 288 293 297 300 295 251 128 266 203 212 218 215 174 174 179 279 272 231 205 198 204 207 192 198 182 173 157 145 138 122 77 59 50 56 64 72 70
303 308 304 289 323 291 271 266 239 262 260 255 269 278 280 283 291 291 292 298 323 318 245 195 195 219 223 240 228 242 239 235 206 224 189 175 195 196 195 217 201 184 162 146 142 143 135 119 80 50 45 52 60 62
309 17 314 283 278 253 255 269 253 260 281 285 279 324 298 299 303 297 297 301 302 237 270 289 269 268 277 260 247 258 242 228 220 228 217 204 201 204 215 196 154 170 169 171 160 154 148 138 106 74 50 51 50 55
299 309 306 303 241 238 245 237 242 273 307 287 293 286 259 268 293 295 321 283 244 274 283 283 282 283 282 267 260 267 259 245 245 228 228 225 204 203 213 202 186 195 178 169 170 167 157 152 139 113 68 60 55 54
309 297 261 231 237 237 257 243 241 235 240 266 330 345 321 310 294 306 297 304 297 309 314 318 302 288 274 270 263 261 238 227 217 212 216 202 198 195 193 188 178 171 166 170 171 163 155 158 151 129 107 77 51 53
303 260 246 243 217 253 255 243 228 243 278 294 294 285 281 275 279 281 264 315 350 351 359 3 4 344 284 242 219 215 222 226 214 204 206 193 197 204 222 199 185 180 176 168 169 164 155 150 152 157 170 176 127 108
272 245 220 262 260 240 247 232 219 248 319 316 268 242 311 324 279 242 269 7 340 358 353 358 3 18 355 321 237 292 254 243 224 202 185 177 163 142 178 176 173 166 159 157 156 159 162 166 174 181 181 181 168 147
239 229 198 223 240 242 334 334 31 343 320 300 297 295 289 280 302 25 21 4 2 355 357 354 338 340 344 344 13 207 208 211 218 196 182 186 186 179 174 170 167 167 165 161 165 170 171 174 170 165 161 167 168 152
238 262 231 234 260 277 287 291 300 299 295 289 273 285 15 2 334 35 345 7 2 3 8 3 339 315 317 40 117 190 188 172 207 205 197 187 181 181 192 179 175 169 170 175 179 182 181 182 179 167 153 149 157 162
247 272 260 269 260 267 274 280 289 260 247 246 353 343 295 262 342 4 24 356 8 12 3 12 32 31 68 91 69 122 117 112 134 168 183 179 183 203 209 190 190 175 175 171 172 180 188 195 197 191 187 172 160 152
248 252 291 274 273 254 250 237 229 228 253 275 356 287 287 22 10 0 359 3 1 18 8 23 32 33 40 52 62 61 69 93 138 155 164 175 183 204 202 185 187 189 181 177 180 187 193 200 203 209 207 184 152 134
262 263 250 257 246 234 232 220 250 272 278 286 276 272 287 80 39 31 23 12 15 22 23 34 37 33 32 39 38 38 40 40 46 224 215 206 204 194 184 186 179 180 181 180 176 175 182 188 191 191 190 180 172 170
268 252 239 239 254 260 271 281 277 275 279 274 267 265 196 152 46 26 22 21 19 20 19 28 28 24 26 32 37 46 43 33 23 24 147 179 163 173 180 174 187 185 182 182 179 180 181 188 193 188 182 175 175 192
261 248 234 245 278 299 304 279 257 236 263 333 31 44 97 84 32 15 12 12 16 20 25 28 33 34 38 60 64 61 59 60 78 115 163 161 164 177 189 190 183 172 166 163 163 170 176 180 184 189 186 181 189 203
286 301 301 267 278 284 260 198 261 75 60 57 32 43 64 73 67 11 18 28 25 29 37 56 65 60 56 58 60 59 58 60 60 72 92 118 130 134 140 142 147 151 151 145 148 154 163 171 178 181 184 189 182 148